Location: Atherton
(17.2661°S, 145.4859°E)
Time: 04:43:31
(UTC+10:00)

Hubble Space Telescope - Pass Details

Date: 11 February 2026
Orbit: 476 x 479 km, 28.5° (Epoch: 6 March)

Event Time Altitude Azimuth Distance (km) Brightness Sun altitude
Rises 20:02:32 0° 288° (WNW) 2,510 5.0 -16.5°
Reaches altitude 10° 20:04:44 10° 285° (WNW) 1,635 4.0 -17.0°
Maximum altitude 20:08:28 64° 203° (SSW) 527 0.8 -17.8°
Enters shadow 20:10:17 28° 129° (SE) 919 1.7 -18.2°
